This demonstration page uses our WeatherBlox Daily Observations layout. Learn more.

Left ArrowRight Arrow

44.89941, -97.11507

Hourly Observations for June 22, 2018

Temp ( °F °C ) Dew Point ( °F °C ) Humidity (%) Winds ( mph kmh ) Pressure ( in mb ) Visibility ( mi km ) Precip ( " mm )
12:53 am 00:53 Clear 63 17.2 62 16.7 97 97 Calm 29.90 1013 10 16 0.00 0.00
1:53 am 01:53 Clear 64 17.8 62 16.7 93 93 Calm 29.92 1013 10 16 0.00 0.00
2:53 am 02:53 Mostly Cloudy 63 17.2 61 16.1 93 93 Calm 29.92 1013 10 16 0.00 0.00
3:53 am 03:53 Clear 63 17.2 61 16.1 93 93 WSW 5 7 29.90 1013 10 16 0.00 0.00
4:53 am 04:53 Partly Cloudy 61 16.1 60 15.6 97 97 Calm 29.90 1013 10 16 0.00 0.00
5:53 am 05:53 Sunny 60 15.6 60 15.6 100 100 Calm 29.90 1012 9 14 0.00 0.00
6:53 am 06:53 Sunny 62 16.7 61 16.1 96 96 E 5 7 29.87 1012 7 11 0.00 0.00
7:53 am 07:53 Sunny with Mist and Fog 63 17.2 63 17.2 100 100 SW 5 7 29.91 1013 6 10 0.00 0.00
8:53 am 08:53 Sunny 65 18.3 64 17.8 97 97 SW 3 6 29.91 1013 10 16 0.00 0.00
9:53 am 09:53 Sunny 70 21.1 62 16.7 76 76 WSW 5 7 29.90 1012 10 16 0.00 0.00
10:53 am 10:53 Sunny 74 23.3 61 16.1 64 64 NNW 5 7 29.89 1012 10 16 0.00 0.00
11:53 am 11:53 Mostly Cloudy 76 24.4 59 15 56 56 WSW 6 9 29.87 1012 10 16 0.00 0.00
12:53 pm 12:53 Sunny 76 24.4 56 13.3 50 50 S 5 7 29.86 1011 10 16 0.00 0.00
1:53 pm 13:53 Sunny 78 25.6 54 12.2 43 43 SW 5 7 29.84 1011 10 16 0.00 0.00
2:53 pm 14:53 Sunny 79 26.1 55 12.8 44 44 VRB 6 9 29.83 1010 10 16 0.00 0.00
3:53 pm 15:53 Sunny 78 25.6 54 12.2 43 43 SSW 8 13 29.81 1010 10 16 0.00 0.00
4:53 pm 16:53 Sunny 80 26.7 52 11.1 38 38 SSE 7 11 29.80 1009 10 16 0.00 0.00
5:53 pm 17:53 Sunny 80 26.7 54 12.2 41 41 S 5 7 29.78 1008 10 16 0.00 0.00
6:53 pm 18:53 Sunny 77 25 58 14.4 52 52 S 8 13 29.76 1008 10 16 0.00 0.00
7:53 pm 19:53 Mostly Cloudy 74 23.3 60 15.6 62 62 SSE 13 20 29.75 1007 10 16 0.00 0.00
8:53 pm 20:53 Sunny 73 22.8 61 16.1 66 66 SSE 9 15 29.74 1007 10 16 0.00 0.00
9:53 pm 21:53 Cloudy 70 21.1 63 17.2 79 79 S 7 11 29.75 1008 10 16 0.00 0.00
10:53 pm 22:53 Mostly Clear 68 20 63 17.2 84 84 S 3 6 29.76 1008 10 16 0.00 0.00
11:53 pm 23:53 Clear 66 18.9 62 16.7 87 87 SSW 8 13 29.78 1009 10 16 0.00 0.00

Powered by AerisWeather